User: anonymous   Login
Location: Unspecified
(0.0000°N, 0.0000°E)
Time: 04:43:11
(UTC+00:00)
Language:

KORONAS-FOTON - Orbit

View from above orbital plane
View from above orbital plane
View from above satellite
View from above satellite

Ground track
Ground track

The orbit data is extracted from the following two-line orbital elements,

1 33504U 09003A   14304.43820712  .00004176  00000-0  24487-3 0  1679
2 33504 082.4416 105.0599 0020647 177.5714 240.2008 15.11338628316297
Epoch (UTC): 31 October 2014 10:31:01
Eccentricity: 0.0020647
inclination: 82.4416°
perigee height: 518 km
apogee height: 546 km
right ascension of ascending node: 105.0599°
argument of perigee: 177.5714°
revolutions per day: 15.11338628
mean anomaly at epoch: 240.2008°
orbit number at epoch: 31629

The dashed part of the orbit path shows where the satellite is in the earth's shadow,  

DLR